Location: Unspecified
(0.0000°N, 0.0000°E)
Time: 11:58:41
(UTC+00:00)

A-11 Canister half - All Passes

Search period start: 20 September 2014 00:00
Search period end: 30 September 2014 00:00
Orbit: 1526 x 1684 km, 47.3° (Epoch: 19 September)

Date Brightness Start Highest point End Pass type
(mag) Time Alt. Az. Time Alt. Az. Time Alt. Az.
20 Sep - 02:53:29 10° N 03:02:04 32° NE 03:10:41 10° ESE visible
20 Sep - 04:57:14 10° NW 05:07:06 58° SW 05:17:00 10° SSE visible
20 Sep - 13:47:07 10° SE 13:48:30 10° SE 13:49:53 10° SE daylight
20 Sep - 15:44:47 10° SSW 15:54:02 66° SE 16:03:11 10° NE daylight
20 Sep - 17:51:45 10° W 17:58:54 25° NW 18:06:06 10° N daylight
21 Sep - 02:32:09 10° N 02:40:29 30° NE 02:48:52 10° ESE visible
21 Sep - 04:35:37 10° NW 04:45:32 62° SW 04:55:31 10° SSE visible
21 Sep - 06:49:30 10° SW 06:51:20 11° SW 06:53:10 10° SSW daylight
21 Sep - 15:23:19 10° SSW 15:32:31 61° SE 15:41:37 10° NE daylight
21 Sep - 17:29:56 10° WSW 17:37:21 27° NW 17:44:49 10° N daylight
22 Sep - 02:10:50 10° N 02:18:55 28° NE 02:27:02 10° ESE visible
22 Sep - 04:14:00 10° NW 04:23:59 66° SW 04:34:02 10° SSE visible
22 Sep - 06:26:27 10° WSW 06:29:41 12° SW 06:32:56 10° SSW daylight
22 Sep - 15:01:52 10° SSW 15:11:01 57° SE 15:20:01 10° NE daylight
22 Sep - 17:08:09 10° WSW 17:15:49 29° NW 17:23:31 10° N daylight
23 Sep - 01:49:32 10° N 01:57:20 26° NE 02:05:10 10° E visible
23 Sep - 03:52:24 10° NW 04:02:25 71° SW 04:12:32 10° SSE visible
23 Sep - 06:03:54 10° WSW 06:08:03 13° SW 06:12:13 10° SSW daylight
23 Sep - 14:40:25 10° SSW 14:49:30 53° SE 14:58:25 10° NE daylight
23 Sep - 16:46:24 10° WSW 16:54:17 31° NW 17:02:11 10° N daylight
24 Sep - 01:28:16 10° N 01:35:45 24° NE 01:43:16 10° E visible
24 Sep - 03:30:49 10° NW 03:40:52 75° SW 03:51:02 10° SE visible
24 Sep - 05:41:33 10° WSW 05:46:25 14° SW 05:51:19 10° SSW daylight
24 Sep - 14:18:59 10° SSW 14:27:59 50° SE 14:36:49 10° ENE daylight
24 Sep - 16:24:40 10° WSW 16:32:45 34° NW 16:40:51 10° NNE daylight
25 Sep - 01:07:02 10° N 01:14:09 22° NE 01:21:20 10° E visible
25 Sep - 03:09:15 10° NW 03:19:19 80° SW 03:29:30 10° SE visible
25 Sep - 05:19:20 10° W 05:24:48 16° SW 05:30:18 10° SSW visible
25 Sep - 13:57:33 10° SSW 14:06:28 46° SE 14:15:11 10° ENE daylight
25 Sep - 16:02:57 10° WSW 16:11:14 36° NW 16:19:30 10° NNE daylight
26 Sep - 00:45:49 10° N 00:52:34 20° NE 00:59:21 10° E visible
26 Sep - 02:47:42 10° NW 02:57:46 85° SW 03:07:58 10° SE visible
26 Sep - 04:57:12 10° W 05:03:11 17° SW 05:09:13 10° S visible
26 Sep - 13:36:09 10° SSW 13:44:57 43° SE 13:53:32 10° ENE daylight
26 Sep - 15:41:14 10° WSW 15:49:42 39° NW 15:58:08 10° NNE daylight
27 Sep - 00:24:39 10° N 00:30:58 19° NE 00:37:20 10° E night (unlit)
27 Sep - 02:26:10 10° NW 02:36:12 90° SW 02:46:25 10° SE visible
27 Sep - 04:35:08 10° W 04:41:34 19° SW 04:48:03 10° S visible
27 Sep - 13:14:44 10° SSW 13:23:25 40° SE 13:31:53 10° ENE daylight
27 Sep - 15:19:33 10° WSW 15:28:11 42° NW 15:36:46 10° NNE daylight
28 Sep - 00:03:32 10° N 00:09:22 17° NE 00:15:14 10° E night (unlit)
28 Sep - 02:04:38 10° NW 02:14:39 85° NE 02:24:52 10° SE visible
28 Sep - 04:13:08 10° W 04:19:58 20° SW 04:26:51 10° S visible
28 Sep - 12:53:21 10° SSW 13:01:53 37° SE 13:10:13 10° ENE daylight
28 Sep - 14:57:53 10° WSW 15:06:40 45° NW 15:15:23 10° NNE daylight
28 Sep - 23:42:29 10° NNE 23:47:46 15° NE 23:53:05 10° E night (unlit)
29 Sep - 01:43:08 10° NW 01:53:06 81° NE 02:03:17 10° SE visible
29 Sep - 03:51:11 10° W 03:58:21 22° SW 04:05:37 10° S visible
29 Sep - 12:31:58 10° SSW 12:40:21 35° SE 12:48:31 10° ENE daylight
29 Sep - 14:36:14 10° WSW 14:45:10 49° NW 14:53:59 10° NNE daylight
29 Sep - 23:21:31 10° NNE 23:26:09 14° NE 23:30:49 10° ENE night (unlit)
